CAPE
750 1146 1025 1298 1484 1189 1048 850 728 588 568 672 812 719 496 188 351 595 813 567 1166 870 774 693 613 801 968 1162 863 693 416 393 136
1146 1378 1307 1296 1088 1152 984 807 585 423 458 623 736 455 118 53 135 269 486 713 1275 893 864 737 614 542 535 756 837 726 332 222 106
1020 1102 1237 1163 937 903 733 681 378 411 471 665 551 307 122 89 99 131 209 805 1128 1134 1070 1025 1033 882 620 375 400 409 287 166 247
454 795 1017 880 781 843 592 404 278 382 575 548 274 119 97 127 151 234 196 703 878 1138 1029 1124 932 792 765 703 525 440 321 170 94
47 177 493 849 846 651 314 217 107 176 253 184 70 0 0 8 39 128 266 582 937 1116 1218 1085 865 885 699 656 775 718 500 380 459
0 4 197 648 608 414 248 108 18 4 0 11 1 0 0 0 0 33 441 788 569 469 529 422 750 879 707 571 525 420 462 391 286
0 0 3 155 91 155 121 13 1 0 0 0 0 0 0 0 0 18 338 557 712 774 729 582 811 773 706 634 652 551 435 259 142
0 0 0 0 0 0 0 0 0 0 0 0 0 0 0 0 0 1 290 346 454 445 549 607 560 539 589 616 565 489 250 158 43
0 0 0 0 0 0 0 0 0 0 0 0 0 0 0 0 0 0 5 252 307 338 428 383 305 173 83 238 227 252 218 54 0
0 0 0 0 0 0 1 0 0 0 0 0 0 0 0 0 0 0 0 4 43 226 324 249 265 104 50 243 225 119 50 0 0
0 0 0 0 0 30 9 0 0 0 0 0 0 0 0 0 0 0 0 0 0 10 96 225 315 241 161 120 77 6 0 13 4
0 0 0 0 0 1 3 0 0 0 0 0 0 0 0 0 0 0 0 0 0 0 0 0 95 254 210 124 93 3 0 0 12
0 0 0 0 0 1 2 0 0 0 0 0 0 0 0 0 0 0 0 0 0 0 0 0 0 0 101 212 231 155 11 0 3
0 0 0 0 0 0 0 6 3 0 0 0 0 0 0 0 0 0 0 0 0 0 0 0 0 0 0 5 123 190 234 151 32
0 0 0 0 0 0 0 0 0 0 0 0 0 0 0 0 0 0 0 0 0 0 0 0 0 0 0 0 0 26 166 194 207
0 0 0 0 0 0 0 0 0 5 0 2 1 0 0 0 0 0 0 0 0 0 0 0 0 0 0 0 0 0 3 139 177
0 0 0 0 0 0 0 0 0 0 0 0 0 0 0 0 0 0 0 0 0 0 0 0 0 0 0 0 0 0 0 0 92
0 0 0 0 0 0 0 0 0 0 0 0 5 6 0 0 0 0 0 0 0 0 0 0 0 0 0 0 0 0 0 0 0
0 0 0 0 0 0 0 0 2 0 1 0 0 0 2 3 1 0 0 0 0 0 0 0 0 0 0 0 0 0 0 0 0
0 0 0 0 0 0 0 0 2 2 2 2 2 0 0 1 6 12 0 0 0 0 0 0 0 0 0 0 0 0 0 0 0
CIN
-1 -6 -12 -0 -0 -0 -0 -0 -5 -21 -29 -30 -13 -15 -34 -58 -37 -27 -11 -27 -0 -0 -1 -3 -3 -0 -0 -0 -0 -0 -0 -4 -22
-12 -2 -0 -0 -0 -0 -0 -0 -5 -32 -37 -33 -22 -38 -80 -106 -70 -53 -31 -13 -0 -0 -0 -0 -1 -2 -0 -0 -0 -0 -3 -10 -28
-0 -3 -0 -0 -0 -7 -0 -0 -19 -27 -38 -29 -38 -59 -69 -79 -81 -72 -53 -8 -2 -0 -0 -0 -0 -0 -0 -2 -0 -0 -0 -14 -4
-18 -0 -0 -0 -0 -0 -0 -1 -19 -27 -27 -36 -64 -96 -99 -79 -58 -36 -44 -5 -6 -2 -4 -0 -0 -0 -0 -0 -0 -0 -0 -1 -16
-147 -61 -5 -1 -0 -0 -3 -6 -36 -39 -36 -53 -103 -0 -0 -145 -106 -65 -26 -9 -2 -2 -1 -1 -0 -0 -0 -0 -0 -0 -0 -0 -0
-0 -31 -16 -2 -0 -1 -0 -15 -133 -176 -0 -110 -89 -0 -0 -0 -0 -100 -12 -2 -5 -6 -9 -10 -5 -0 -0 -0 -0 -0 -0 -0 -0
-0 -0 -25 -44 -62 -12 -20 -191 -122 -0 -0 -0 -0 -0 -0 -0 -0 -41 -16 -4 -1 -0 -0 -6 -0 -1 -0 -0 -0 -1 -0 -0 -12
-0 -0 -0 -0 -0 -0 -0 -0 -0 -0 -0 -0 -4 -72 -0 -0 -0 -0 -31 -7 -0 -7 -0 -0 -3 -3 -1 -0 -0 -0 -5 -14 -21
-0 -0 -0 -0 -0 -0 -0 -0 -0 -0 -0 -0 -0 -0 -0 -0 -0 -0 -52 -15 -4 -1 -0 -0 -0 -2 -26 -4 -1 -2 -3 -16 -0
-0 -0 -0 -0 -0 -0 -56 -0 -0 -0 -0 -0 -0 -0 -0 -0 -0 -0 -0 -40 -25 -1 -0 -0 -1 -4 -18 -2 -3 -7 -7 -0 -0
-0 -0 -0 -0 -1 -44 -73 -4 -0 -0 -0 -0 -0 -0 -0 -0 -0 -0 -0 -0 -0 -18 -16 -0 -0 -4 -1 -2 -7 -17 -0 -26 -8
-0 -0 -0 -0 -0 -64 -87 -0 -0 -0 -0 -0 -0 -0 -0 -0 -0 -0 -0 -0 -0 -0 -0 -0 -16 -2 -2 -2 -9 -14 -0 -0 -23
-0 -0 -0 -0 -0 -26 -37 -0 -0 -0 -0 -0 -0 -0 -0 -0 -0 -0 -0 -0 -0 -0 -0 -0 -0 -0 -9 -2 -2 -9 -8 -0 -13
-0 -0 -0 -0 -0 -0 -0 -59 -64 -25 -0 -0 -0 -0 -0 -0 -0 -0 -0 -0 -0 -0 -0 -0 -0 -0 -0 -21 -15 -2 -5 -18 -29
-0 -0 -0 -0 -0 -0 -0 -0 -6 -17 -0 -0 -0 -0 -0 -0 -0 -0 -0 -0 -0 -0 -0 -0 -0 -0 -0 -0 -0 -12 -7 -4 -7
-0 -0 -0 -0 -0 -0 -0 -0 -0 -50 -0 -54 -41 -0 -0 -0 -0 -0 -0 -0 -0 -0 -0 -0 -0 -0 -0 -0 -0 -0 -22 -9 -2
-0 -0 -0 -0 -0 -0 -0 -0 -0 -0 -0 -0 -0 -0 -0 -0 -0 -0 -0 -0 -0 -0 -0 -0 -0 -0 -0 -0 -0 -0 -0 -0 -0
-0 -0 -0 -0 -0 -0 -0 -0 -0 -0 -0 -0 -3 -7 -0 -0 -0 -0 -0 -0 -0 -0 -0 -0 -0 -0 -0 -0 -0 -0 -0 -0 -0
-0 -0 -0 -0 -0 -0 -0 -0 -0 -0 -0 -0 -0 -0 -0 -4 -3 -0 -0 -0 -0 -0 -0 -0 -0 -0 -0 -0 -0 -0 -0 -0 -6
-0 -0 -0 -0 -0 -0 -0 -0 -0 -0 -0 -0 -0 -0 -0 -0 -0 -0 -0 -0 -0 -0 -0 -0 -0 -0 -0 -0 -0 -0 -0 -0 -0
Wind_Speed
14 12 11 13 12 15 14 14 14 14 15 14 13 12 11 8 5 5 6 5 12 14 14 14 14 14 14 15 15 15 15 15 14
11 13 9 11 12 14 14 14 13 13 14 12 12 12 10 6 5 5 5 4 12 14 13 13 13 14 14 13 14 14 14 13 13
13 13 12 11 13 17 14 14 13 13 12 10 12 11 9 6 5 5 4 5 10 12 13 13 13 13 13 13 13 13 13 12 13
12 12 12 12 13 13 13 13 13 13 11 14 13 12 11 6 4 5 3 4 6 8 10 11 12 12 11 11 12 12 12 11 11
12 11 11 10 12 13 12 13 14 14 14 13 14 12 11 6 5 4 4 7 6 6 7 8 10 11 11 9 11 10 10 9 10
8 8 10 8 12 13 12 12 12 12 13 14 12 10 4 5 4 3 8 10 8 8 6 6 8 10 9 8 8 8 9 9 9
6 6 10 12 11 12 13 12 11 8 4 4 8 4 5 5 4 4 9 9 9 9 7 7 7 7 8 6 6 9 10 9 8
4 3 4 4 6 4 6 5 4 6 4 5 5 6 5 4 4 7 13 11 9 7 6 6 6 6 7 9 8 8 9 7 7
5 3 4 4 3 4 4 3 5 6 6 7 7 6 5 4 3 5 13 15 13 8 7 4 4 5 3 4 5 5 7 5 5
4 4 4 2 3 2 3 4 4 5 5 4 5 6 6 5 3 3 13 14 14 14 13 7 4 0 0 3 4 4 3 3 3
7 6 6 6 5 2 4 4 4 3 3 5 6 6 5 5 6 4 5 13 14 14 13 12 12 5 4 2 3 3 4 3 3
10 8 8 8 6 5 4 5 4 4 3 6 5 5 5 5 5 4 4 5 10 12 14 14 14 15 3 3 4 3 3 3 4
10 9 9 9 8 6 4 3 3 4 3 3 4 4 4 5 5 5 4 4 4 7 12 13 14 14 15 10 6 7 6 5 5
11 10 10 11 9 8 8 4 3 3 4 3 1 2 2 3 3 4 5 5 5 4 7 11 12 14 15 15 15 13 10 10 10
11 10 12 10 9 10 10 8 5 3 3 4 4 3 2 3 4 5 4 5 4 5 5 4 5 11 13 14 15 17 16 10 11
13 9 11 11 10 10 11 6 6 4 6 3 4 3 2 2 3 3 3 4 4 5 4 3 3 4 11 13 15 16 18 18 11
13 12 10 11 8 11 12 12 5 4 6 3 2 3 5 4 3 2 2 3 3 4 5 5 5 4 4 6 13 14 16 18 17
15 14 11 11 9 9 9 11 11 5 4 9 4 3 2 3 2 3 2 3 3 4 4 5 5 5 4 6 8 12 14 17 18
15 14 13 12 9 11 9 9 8 7 7 5 8 6 3 3 4 3 4 5 5 5 4 5 5 5 4 6 9 13 14 16 18
15 14 13 12 9 10 11 10 10 7 6 6 5 5 6 7 4 5 5 3 3 4 4 4 5 6 5 5 7 13 15 17 19
Wind_Direction
79 58 64 68 64 69 60 57 53 50 46 47 62 67 65 67 51 60 75 84 110 105 107 102 97 90 84 84 90 91 88 81 84
51 75 62 67 62 69 63 59 50 49 44 52 77 73 61 53 51 53 63 89 112 114 109 104 100 97 91 86 86 88 93 91 86
42 34 31 59 66 60 55 56 48 41 45 70 77 68 61 57 49 44 47 110 124 124 119 114 105 98 96 93 90 88 84 83 80
41 35 31 56 62 64 61 58 52 41 61 74 69 58 53 52 39 41 31 95 120 116 115 117 109 104 98 100 100 97 96 92 89
32 29 22 47 65 66 59 57 54 58 60 63 64 53 44 37 35 21 27 43 67 85 95 111 116 105 99 85 84 95 99 99 88
32 26 24 39 62 65 65 65 58 59 53 52 57 49 38 38 25 15 39 48 52 67 73 107 103 108 106 109 105 95 95 87 84
32 25 32 51 58 60 63 59 54 50 49 43 54 47 43 35 14 14 40 53 48 57 63 74 94 107 115 110 128 108 93 92 91
28 26 18 29 43 48 55 49 42 39 42 45 49 49 43 35 19 9 38 49 50 60 67 78 89 90 94 89 86 109 103 102 102
14 23 22 23 17 54 66 54 47 42 43 44 37 49 44 29 20 347 39 43 35 43 55 56 76 67 79 70 94 84 95 108 111
4 7 11 22 29 55 61 78 64 51 47 56 74 49 43 24 5 13 23 41 38 34 35 20 328 86 175 117 106 113 128 127 119
11 6 21 17 359 60 91 70 59 57 38 40 43 38 27 23 20 9 10 24 27 32 30 20 11 284 195 180 175 170 167 167 163
15 17 10 6 351 12 41 67 49 33 24 39 24 20 19 11 8 3 17 12 12 17 19 14 16 11 283 222 196 223 217 210 207
23 21 13 353 4 10 12 19 53 44 31 21 10 14 359 354 3 4 1 5 4 4 7 9 7 10 4 357 301 220 217 236 241
24 22 11 4 12 14 357 14 35 22 7 354 290 349 325 333 346 350 356 351 352 345 351 8 1 5 3 358 353 344 267 217 223
22 22 18 14 19 18 2 350 17 23 358 324 302 283 291 331 338 330 336 343 332 1 349 1 346 356 357 353 350 348 341 268 233
27 24 19 16 25 13 6 339 356 13 359 320 342 338 10 340 330 312 308 321 335 337 338 355 357 340 346 345 341 343 340 332 267
28 26 23 21 19 18 16 15 343 341 23 343 307 336 333 352 349 3 341 322 318 321 321 326 328 332 329 321 329 333 331 330 316
24 24 23 22 25 20 10 13 18 348 331 345 350 334 356 309 331 344 2 1 339 323 316 304 295 297 307 315 315 314 320 318 318
22 21 22 22 20 20 13 15 16 6 9 325 7 346 313 337 314 342 330 338 319 315 312 314 312 301 295 297 294 298 303 305 308
21 20 18 20 17 13 12 12 23 17 19 11 337 343 332 38 322 320 347 325 306 289 283 298 302 301 296 293 283 287 292 293 293